Weather History for KMDW - February, 2014

Change the Weather History Date:

Friday, February 21, 2014

  Actual Average Record
Temperature  
Mean Temperature 33 °F 31 °F  
Max Temperature 37 °F 38 °F 66 °F (1930)
Min Temperature 28 °F 23 °F -6 °F (1963)
Degree Days  
Heating Degree Days 32 34  
Month to date heating degree days 958 782  
Since 1 July heating degree days 4876 4278  
Cooling Degree Days 0 0  
Month to date cooling degree days 0 0  
Year to date cooling degree days 0 0  
Moisture  
Dew Point 21 °F    
Average Humidity 65    
Maximum Humidity 87    
Minimum Humidity 34    
Precipitation  
Precipitation T in 0.07 in 3.25 in (1997)
Month to date precipitation 1.43 1.35  
Year to date precipitation 2.49 3.41  
Snow  
Snow 0.00 in - - ()
Snow Depth 2.00 in    
Sea Level Pressure  
Sea Level Pressure 29.64 in    
Wind  
Wind Speed 23 mph (WSW)    
Max Wind Speed 39 mph    
Max Gust Speed 51 mph    
Visibility 8 miles    
Events Snow    
T = Trace of Precipitation, MM = Missing Value Source: NWS Daily Summary

Daily Weather History Graph

Daily Weather History Graph

Search for Another Location

Airport or City:

Trip Planner

Search our weather history database for the weather conditions in past years. The results will help you decide how hot, cold, wet, or windy it might be!

Date:

Astronomy

Feb. 21, 2014 Rise Set
Actual Time 6:38 AM CST 5:31 PM CST
Civil Twilight 6:09 AM CST 6:00 PM CST
Nautical Twilight 5:37 AM CST 6:32 PM CST
Astronomical Twilight 5:05 AM CST 7:04 PM CST
Moon No Moon Rise 9:56 AM CST (2/21)
Length of Visible Light 11h 50m
Length of Day
10h 53m
Waning Gibbous, 60% of the Moon is Illuminated
Feb 21
Waning Gibbous
Feb 22
Last Quarter
Mar 1
New
Mar 8
First Quarter
Mar 16
Full

Hourly Weather History & Observations

Time (CST) Temp. Windchill Dew Point Humidity Pressure Visibility Wind Dir Wind Speed Gust Speed Precip Events Conditions
12:51 AM 37.0 °F 25.9 °F 30.0 °F 76% 29.40 in 10.0 mi WSW 23.0 mph 32.2 mph N/A   Overcast
1:51 AM 36.0 °F 23.0 °F 28.9 °F 76% 29.43 in 10.0 mi SW 29.9 mph 43.7 mph N/A   Overcast
2:51 AM 35.1 °F 23.3 °F 28.9 °F 78% 29.46 in 9.0 mi SW 23.0 mph 42.6 mph 0.00 in Snow Light Snow
3:51 AM 34.0 °F 21.0 °F 28.0 °F 79% 29.47 in 5.0 mi WSW 26.5 mph 36.8 mph 0.00 in Snow Light Snow
4:51 AM 32.0 °F 17.9 °F 27.0 °F 82% 29.51 in 2.0 mi WSW 28.8 mph 40.3 mph 0.00 in Snow Light Snow
5:10 AM 32.0 °F 21.2 °F 28.4 °F 87% 29.49 in 1.8 mi WSW 16.1 mph 35.7 mph 0.00 in Snow Light Snow
5:51 AM 30.9 °F 16.2 °F 26.1 °F 82% 29.53 in 1.5 mi WSW 29.9 mph 40.3 mph 0.00 in Snow Light Snow
6:04 AM 30.2 °F 16.2 °F 24.8 °F 80% 29.52 in 5.0 mi WSW 25.3 mph 41.4 mph 0.00 in Snow Light Snow
6:51 AM 30.0 °F 15.4 °F 21.0 °F 69% 29.55 in 6.0 mi WSW 27.6 mph 46.0 mph 0.00 in Snow Light Snow
7:19 AM 28.4 °F 13.5 °F 21.2 °F 74% 29.56 in 7.0 mi WSW 26.5 mph 42.6 mph 0.00 in Snow Light Snow
7:29 AM 28.4 °F 15.1 °F 23.0 °F 80% 29.56 in 2.5 mi WSW 20.7 mph 41.4 mph 0.00 in Snow Light Snow
7:33 AM 28.4 °F 14.1 °F 23.0 °F 80% 29.56 in 1.8 mi WSW 24.2 mph 35.7 mph 0.00 in Snow Light Snow
7:51 AM 28.0 °F 13.9 °F 23.0 °F 81% 29.60 in 2.5 mi WSW 23.0 mph 32.2 mph 0.00 in Snow Light Snow
8:13 AM 28.4 °F 13.3 °F 23.0 °F 80% 29.57 in 3.0 mi WSW 27.6 mph 35.7 mph 0.00 in Snow Light Snow
8:51 AM 28.9 °F 14.8 °F 21.0 °F 72% 29.59 in 10.0 mi WSW 24.2 mph 36.8 mph 0.00 in   Overcast
9:51 AM 28.9 °F 13.2 °F 19.0 °F 67% 29.62 in 10.0 mi WSW 31.1 mph 44.9 mph N/A   Mostly Cloudy
10:41 AM 28.4 °F 13.3 °F 17.6 °F 64% 29.61 in 10.0 mi WSW 27.6 mph 47.2 mph N/A   Scattered Clouds
10:51 AM 28.9 °F 12.8 °F 18.0 °F 64% 29.65 in 10.0 mi WSW 33.4 mph 43.7 mph N/A   Scattered Clouds
11:51 AM 30.9 °F 15.7 °F 19.0 °F 61% 29.67 in 10.0 mi WSW 32.2 mph 46.0 mph N/A   Scattered Clouds
12:51 PM 32.0 °F 16.5 °F 19.0 °F 59% 29.68 in 10.0 mi WSW 35.7 mph 47.2 mph N/A   Partly Cloudy
1:51 PM 33.1 °F 21.2 °F 17.1 °F 52% 29.70 in 10.0 mi WSW 20.7 mph 42.6 mph N/A   Partly Cloudy
2:51 PM 33.1 °F 20.6 °F 15.1 °F 48% 29.73 in 10.0 mi WSW 23.0 mph 35.7 mph N/A   Partly Cloudy
3:51 PM 34.0 °F 22.4 °F 12.9 °F 42% 29.75 in 10.0 mi WSW 20.7 mph 38.0 mph N/A   Partly Cloudy
4:51 PM 34.0 °F 22.4 °F 16.0 °F 48% 29.79 in 10.0 mi WSW 20.7 mph 32.2 mph N/A   Scattered Clouds
5:51 PM 33.1 °F 22.2 °F 19.9 °F 59% 29.80 in 10.0 mi WSW 17.3 mph - N/A   Partly Cloudy
6:51 PM 34.0 °F 23.8 °F 21.0 °F 59% 29.82 in 10.0 mi WSW 16.1 mph - N/A   Partly Cloudy
7:51 PM 34.0 °F 24.6 °F 21.9 °F 61% 29.83 in 10.0 mi SW 13.8 mph - N/A   Partly Cloudy
8:51 PM 35.1 °F 25.5 °F 21.9 °F 59% 29.83 in 10.0 mi WSW 15.0 mph - N/A   Scattered Clouds
9:51 PM 34.0 °F 24.6 °F 23.0 °F 64% 29.85 in 10.0 mi WSW 13.8 mph - N/A   Mostly Cloudy
10:51 PM 32.0 °F 20.5 °F 12.0 °F 44% 29.86 in 10.0 mi West 18.4 mph - N/A   Overcast
11:51 PM 28.9 °F 20.4 °F 8.1 °F 41% 29.87 in 10.0 mi West 9.2 mph 20.7 mph N/A   Partly Cloudy